This is the latest recevied weather packets stored in our database for station/object KG5EO. If no packets are shown the sender has not sent any weather packets the latest 10 day(s).
| Time | Temp. | Humidity | Pressure | Rain* | Wind** | Luminosity | Snow |
|---|---|---|---|---|---|---|---|
| 1778147479 | 16.67° C | 39% | 41 hPa | 0 mm | - | - | - |
| 1778147176 | 17.22° C | 37% | 41 hPa | 0 mm | - | - | - |
| 1778146877 | 17.22° C | 37% | 41 hPa | 0 mm | - | - | - |
| 1778146578 | 17.22° C | 36% | 41 hPa | 0 mm | - | - | - |
| 1778146278 | 17.78° C | 37% | 41 hPa | 0 mm | - | - | - |
| 1778145976 | 17.22° C | 37% | 41 hPa | 0 mm | - | - | - |
| 1778145677 | 17.78° C | 37% | 41.1 hPa | 0 mm | - | - | - |
| 1778145376 | 17.78° C | 35% | 41.1 hPa | 0 mm | - | - | - |
| 1778145075 | 17.78° C | 36% | 41.1 hPa | 0 mm | - | - | - |
| 1778144775 | 17.22° C | 35% | 41.1 hPa | 0 mm | - | - | - |
| 1778144475 | 17.78° C | 33% | 41.1 hPa | 0 mm | - | - | - |
| 1778144175 | 17.78° C | 32% | 41.1 hPa | 0 mm | - | - | - |
| 1778143875 | 17.78° C | 34% | 41.1 hPa | 0 mm | - | - | - |
| 1778143574 | 18.33° C | 31% | 41.1 hPa | 0 mm | - | - | - |
| 1778143275 | 18.33° C | 32% | 41.1 hPa | 0 mm | - | - | - |
| 1778142975 | 18.89° C | 35% | 41.1 hPa | 0 mm | - | - | - |
| 1778142674 | 18.89° C | 32% | 41.1 hPa | 0 mm | - | - | - |
| 1778142374 | 19.44° C | 30% | 41.1 hPa | 0 mm | - | - | - |
| 1778142076 | 20° C | 34% | 41.1 hPa | 0 mm | - | - | - |
| 1778141773 | 20.56° C | 28% | 41.1 hPa | 0 mm | - | - | - |
| 1778141473 | 20.56° C | 27% | 41.1 hPa | 0 mm | - | - | - |
| 1778141174 | 21.11° C | 26% | 41.1 hPa | 0 mm | - | - | - |
| 1778140874 | 21.11° C | 26% | 41.1 hPa | 0 mm | - | - | - |
| 1778140573 | 21.11° C | 27% | 41.1 hPa | 0 mm | - | - | - |
| 1778140273 | 21.11° C | 29% | 41.1 hPa | 0 mm | - | - | - |
* Rain latest hour (hover to see other rain measurements)
** Current wind speed in m/s (hover to see current wind gust speed)